Location: Gleizolles
(44.4833°N, 6.7667°E)
Time: 12:05:37
(UTC+00:00)

A-11 Canister half - Pass Details

Date: 16 June 2024
Orbit: 1515 x 1684 km, 47.2° (Epoch: 24 July)

Event Time Altitude Azimuth Distance (km) Brightness Sun altitude
Rises 21:19:53 0° 269° (W) 4,901 12.1 -15.5°
Reaches altitude 10° 21:23:06 10° 271° (W) 3,896 11.5 -15.8°
Maximum altitude 21:33:05 76° 357° (N) 1,653 9.2 -16.7°
Drops below altitude 10° 21:42:42 10° 84° (E) 3,762 10.8 -17.5°
Sets 21:45:44 0° 86° (E) 4,725 11.3 -17.8°
